Theta_e
325 327 327 326 327 327 325 326 328 333 334 334 333 332 331 330 329 328 328 327 326 326 326 326 326 327 327 326 325 324 323 322 322 321 321 321 321 320 320 320 321 323 324 325 328 331 333 334 335 334 332 333 331 326 326 326 326 326 326 325 325 325 325 325 325 323 321 321 324 329 333 335 335 333 331 331 333 334 334 333 335 336 336 332 330
321 323 326 325 327 328 326 325 326 330 332 333 334 332 330 330 328 327 327 326 326 326 326 326 326 326 325 324 323 322 321 321 320 320 320 319 319 319 319 319 320 321 322 324 329 331 331 332 333 331 332 335 331 327 329 328 327 328 327 327 327 326 326 326 326 326 324 322 322 326 330 333 334 334 331 328 328 330 333 335 335 336 335 333 332
317 319 323 324 325 327 327 326 326 327 329 332 333 333 331 330 329 328 328 326 326 325 325 325 324 324 323 323 322 321 321 321 320 320 319 319 319 319 319 319 319 320 321 324 329 331 329 330 330 330 332 333 331 329 330 328 328 328 328 328 328 328 327 327 327 327 326 325 323 323 326 330 332 333 333 332 331 328 328 331 334 335 336 335 334
315 317 319 321 322 325 326 327 326 326 328 330 332 333 332 332 331 330 330 327 325 326 325 325 325 324 323 323 323 323 323 322 322 322 321 320 319 320 320 320 320 320 322 327 330 329 327 328 329 331 331 331 331 330 329 327 326 326 326 327 328 328 328 328 328 328 327 327 326 323 324 329 330 331 333 335 335 332 329 327 327 329 333 335 335
315 315 316 317 318 320 323 324 326 326 327 329 331 332 332 333 332 332 332 327 324 327 327 326 326 325 324 325 325 327 327 326 325 324 324 323 322 321 321 322 322 321 324 329 329 328 327 328 330 331 331 331 332 331 329 328 325 324 324 325 326 326 327 327 328 329 328 327 327 326 326 328 329 328 332 335 334 333 332 330 328 324 325 330 334
315 314 314 314 315 316 318 320 322 325 328 329 330 330 331 331 330 331 331 327 324 326 327 326 327 326 326 327 329 330 329 329 328 326 326 325 324 323 324 324 323 324 327 328 326 326 327 328 329 330 331 332 333 332 331 329 325 324 324 324 325 325 325 326 326 328 328 329 328 328 327 327 329 329 329 333 332 331 332 332 331 328 324 324 327
317 314 313 313 314 314 315 317 318 322 327 329 330 330 330 329 328 328 328 327 326 326 326 327 327 327 328 329 331 332 331 331 330 327 327 327 326 325 325 325 324 325 327 326 323 324 327 329 330 331 331 332 333 333 332 327 323 323 322 322 322 323 324 325 325 326 326 328 328 328 328 328 330 331 330 332 332 331 330 330 330 330 328 325 323
319 316 314 313 314 314 314 316 317 319 324 327 328 328 329 328 328 327 327 328 327 326 325 326 328 329 330 331 332 333 332 332 332 329 328 328 327 326 326 325 325 325 325 324 322 322 325 328 330 330 329 330 333 333 330 325 320 318 317 316 316 316 318 320 322 323 324 326 327 327 328 328 329 331 331 331 333 332 330 328 328 329 330 328 325
321 318 315 314 314 314 315 316 317 317 319 322 324 325 326 326 326 327 328 328 327 326 325 325 329 331 331 333 333 333 332 332 332 330 329 328 327 326 325 325 325 325 324 324 322 320 321 323 325 325 324 326 328 327 323 318 314 313 312 312 312 312 312 314 315 317 319 321 325 327 328 328 328 331 331 330 331 332 332 330 329 329 329 329 327
321 319 316 315 314 314 315 316 317 318 318 318 320 322 323 323 325 327 328 327 326 325 325 326 331 332 331 333 333 333 332 331 331 330 329 327 325 324 325 325 324 322 321 320 318 316 316 316 317 317 317 318 318 316 314 312 312 311 311 310 310 310 310 311 311 312 313 315 318 322 326 327 329 331 331 331 331 331 331 331 331 329 328 328 327
321 320 317 315 314 314 314 316 317 318 318 318 319 320 323 323 323 326 325 325 325 326 326 329 332 332 332 333 333 332 331 330 329 329 327 324 322 321 321 322 319 316 315 314 313 312 312 312 312 312 312 312 312 311 310 310 309 308 308 307 307 306 306 307 308 309 310 311 312 315 319 323 329 331 330 330 330 330 330 330 329 329 329 328 327
321 320 318 317 315 314 314 314 315 317 318 319 318 318 321 322 320 321 322 324 326 329 328 329 332 332 333 333 332 331 331 330 328 327 323 320 318 316 315 315 313 312 311 311 310 310 309 309 309 309 309 309 308 308 307 306 305 305 305 304 305 304 304 304 304 305 306 308 309 311 312 315 324 327 327 327 327 328 328 328 327 327 328 327 327
321 320 319 318 316 315 314 314 314 315 317 317 317 318 320 321 319 318 322 327 329 332 330 329 331 332 332 332 331 330 329 328 326 323 317 314 313 312 311 311 310 310 309 308 307 307 306 306 306 306 305 305 305 304 304 304 304 304 304 304 304 304 304 304 304 304 304 305 305 307 308 310 315 318 321 323 323 324 323 324 324 323 323 323 324
322 321 320 319 317 316 314 314 314 315 316 316 316 317 319 319 320 321 323 328 330 330 329 329 329 328 328 328 329 328 325 323 320 316 312 311 310 310 309 308 307 306 306 305 305 304 304 304 304 304 304 304 304 304 304 304 304 304 304 304 304 304 304 304 304 304 304 304 304 304 304 306 309 312 317 319 320 320 319 319 319 318 319 319 321
321 322 321 320 318 317 315 314 314 315 315 315 316 316 317 316 319 323 325 329 329 327 327 326 325 323 323 323 324 323 320 316 313 311 310 310 309 307 306 305 305 304 304 304 304 304 304 304 304 304 304 304 304 304 304 304 304 304 304 304 304 304 304 304 304 304 303 303 303 303 303 303 304 306 310 313 315 315 315 316 314 313 314 316 318
320 321 321 320 319 318 316 315 314 315 316 316 316 316 315 314 317 320 323 326 327 325 324 322 319 316 316 317 317 318 315 312 310 310 309 308 306 305 304 304 304 304 304 304 304 304 304 304 304 304 304 304 304 304 305 305 305 306 306 305 306 305 305 305 304 304 304 303 303 303 303 303 303 303 305 307 308 309 310 311 309 309 309 311 314
318 319 320 320 319 318 317 316 315 315 316 316 315 315 313 313 314 316 319 322 321 320 319 317 314 312 313 313 313 314 312 310 310 308 307 306 305 304 305 304 304 305 304 304 304 304 304 304 304 304 304 305 305 306 306 307 307 307 307 307 307 307 306 306 306 305 304 304 303 303 303 302 302 302 303 303 304 304 305 305 305 306 306 307 309
317 317 318 319 320 319 318 317 316 315 315 315 315 313 313 312 312 314 315 318 317 316 315 314 313 311 311 311 311 311 310 309 308 307 306 305 305 305 305 305 305 305 304 304 304 304 304 304 305 305 305 306 306 307 307 307 307 307 307 307 307 307 307 307 307 306 306 305 304 303 303 303 303 302 302 302 302 303 303 302 303 303 304 304 304
317 317 317 318 319 319 318 317 316 315 315 315 314 313 312 312 312 312 313 314 314 314 313 312 312 310 311 310 310 309 309 308 307 306 304 305 305 305 305 305 305 305 304 304 304 304 305 305 305 306 306 306 307 306 306 306 306 307 307 307 307 307 307 307 307 307 307 306 305 304 304 303 303 302 302 302 302 302 302 302 302 302 302 303 303
317 317 316 316 317 318 318 317 317 316 316 315 315 313 312 312 312 312 312 312 312 312 312 311 311 310 310 310 309 309 308 307 306 305 304 305 305 305 305 305 305 305 305 305 305 305 305 306 306 306 306 306 306 306 306 306 306 306 306 306 306 306 306 307 307 307 307 307 306 306 305 304 304 303 303 303 302 302 302 302 302 302 302 302 302
317 317 316 315 316 317 317 317 317 316 316 315 315 314 313 312 312 313 313 313 313 312 311 310 310 310 309 309 308 308 307 306 305 304 305 305 305 305 305 305 305 305 305 305 305 305 305 306 306 306 306 306 305 305 305 305 305 305 305 305 305 306 306 306 306 306 306 306 306 306 305 305 304 304 303 303 303 302 302 302 302 302 302 302 302
316 317 317 316 315 315 316 316 316 316 316 316 315 314 314 313 312 313 313 313 312 312 311 310 310 309 309 308 308 307 306 305 304 304 305 305 305 305 305 305 305 305 305 305 305 305 305 306 306 305 305 305 305 305 305 305 305 305 305 305 305 305 305 305 306 306 306 306 306 306 305 305 304 304 304 303 303 302 302 302 302 302 302 302 302
316 316 317 317 316 315 315 315 316 316 316 316 316 315 314 314 313 313 313 313 313 312 311 311 310 309 309 308 308 307 305 304 304 304 305 305 304 304 305 305 305 305 305 305 305 305 305 305 305 305 305 305 305 305 305 305 305 305 305 305 305 305 305 305 305 305 305 305 306 305 305 304 304 304 304 303 303 302 302 302 301 301 302 302 302
316 316 316 316 317 316 316 315 315 315 316 316 316 315 315 314 314 313 313 313 312 312 311 311 310 309 309 308 308 307 305 304 304 304 304 304 304 304 304 305 305 305 305 305 305 305 305 305 305 305 305 305 305 305 305 304 304 304 304 304 304 304 305 305 305 305 305 305 305 305 305 304 304 303 303 303 303 302 301 301 301 301 301 302 302
315 315 316 316 316 316 316 316 315 315 315 315 315 315 315 315 314 314 313 313 313 312 312 311 310 309 309 308 308 306 304 304 304 304 304 304 304 304 304 305 305 305 305 304 305 305 305 305 305 304 304 305 305 305 304 304 304 304 304 304 304 304 304 304 304 304 305 305 305 305 305 304 303 303 303 303 302 302 302 301 301 301 301 301 302
315 315 315 315 316 316 316 316 316 315 315 315 315 315 315 315 315 314 314 313 313 313 312 312 311 310 309 308 308 306 304 304 304 304 304 304 304 304 304 305 305 305 304 304 304 304 304 304 304 304 304 304 304 304 304 304 304 304 304 304 304 304 304 304 304 304 304 305 305 305 305 304 303 302 302 302 302 302 301 301 301 301 301 301 301
315 315 315 315 315 316 316 316 316 316 315 315 315 315 315 315 315 315 314 314 313 313 312 312 311 311 309 309 308 306 304 304 304 304 305 305 305 305 305 305 305 304 304 304 304 304 304 304 304 304 304 304 304 304 304 304 304 304 304 304 303 303 304 303 303 304 304 304 304 304 304 303 303 302 301 300 301 300 300 300 300 301 301 301 302
315 315 315 315 315 315 315 316 316 316 316 315 315 315 315 315 315 315 315 314 314 313 313 312 312 311 310 309 308 307 305 304 304 305 305 305 305 305 305 305 304 304 304 304 304 304 304 304 304 304 304 304 303 303 303 303 303 303 303 303 303 303 303 303 303 303 303 304 304 304 304 303 302 301 300 300 299 300 300 299 300 302 302 301 302
315 315 315 315 315 315 315 315 316 316 316 316 316 315 315 315 314 315 315 315 314 314 313 313 312 311 311 309 309 308 306 304 304 304 305 305 305 306 305 305 304 304 304 304 304 304 304 304 304 304 304 304 303 303 303 303 303 303 303 303 303 303 303 303 303 303 303 303 303 304 304 303 302 301 300 299 299 299 299 299 300 300 301 301 302
315 315 315 315 315 315 315 315 315 316 316 316 316 316 315 315 314 314 314 315 315 315 314 313 312 311 311 311 309 308 307 305 304 304 304 304 305 305 305 305 304 304 304 304 304 304 303 303 303 303 303 303 303 303 303 303 303 303 303 303 303 303 302 302 302 303 303 303 303 303 303 303 302 301 300 299 298 298 298 299 300 300 300 301 302
315 315 315 315 315 314 315 315 315 315 315 316 316 316 316 315 315 314 315 314 315 315 314 314 313 312 312 311 310 309 308 306 305 304 304 304 304 304 305 305 304 304 304 303 303 303 303 303 303 303 303 303 303 303 303 303 303 303 303 302 302 302 302 302 302 302 302 302 303 303 303 303 302 301 300 299 298 298 298 299 299 299 300 301 301
315 315 315 315 315 315 315 314 315 315 315 315 316 316 316 316 316 315 315 314 314 315 315 314 313 313 312 311 310 309 308 307 305 304 304 304 304 304 304 304 304 304 304 304 303 303 303 303 303 303 303 303 303 303 303 303 302 302 302 302 302 302 302 302 302 302 302 302 302 302 303 302 302 301 300 299 298 298 298 297 298 298 299 300 300
314 314 314 314 315 315 315 315 315 315 315 315 315 315 316 316 316 316 315 315 314 314 314 314 314 313 312 311 311 310 309 308 307 305 303 303 303 303 303 303 304 304 304 303 303 303 303 303 303 303 303 303 303 303 303 302 302 302 302 302 302 302 302 302 302 302 302 302 302 302 302 302 302 301 300 299 298 297 297 297 297 297 297 298 299
313 313 314 314 314 314 314 315 315 314 315 315 315 315 315 316 316 316 316 315 315 314 314 314 314 313 313 312 311 310 309 308 307 305 303 303 303 303 303 303 303 303 303 303 303 303 303 303 302 303 303 303 303 302 302 302 302 302 302 302 301 302 302 302 302 302 302 302 302 302 302 302 302 301 300 298 297 297 296 296 296 296 296 297 298
313 313 313 313 313 314 314 314 314 314 314 314 314 314 315 315 315 315 316 316 315 315 314 314 314 314 313 312 311 310 309 308 308 306 304 303 303 302 302 302 302 303 302 302 303 303 303 302 302 302 302 302 302 302 302 302 301 301 301 301 301 301 301 302 302 302 302 301 301 302 302 302 301 300 299 298 297 296 296 296 296 296 296 296 296
313 313 313 313 313 313 313 313 314 314 314 314 314 314 315 315 315 315 315 315 315 315 315 314 314 314 314 313 312 310 309 308 308 307 305 303 302 302 302 302 302 302 302 302 302 302 302 302 302 302 302 302 302 302 302 301 301 301 301 301 301 301 301 301 301 301 301 301 301 301 301 302 301 300 299 298 297 296 296 296 296 296 296 296 296
314 313 313 313 313 313 313 313 314 314 314 314 314 314 314 314 314 314 315 315 315 315 315 315 314 314 314 313 312 311 309 309 308 307 306 304 302 302 302 302 302 301 301 302 302 302 302 302 302 301 301 301 301 301 301 301 301 300 300 300 300 300 300 301 301 301 301 300 301 301 301 301 300 299 298 297 296 296 296 296 295 295 295 295 295
313 313 313 312 312 312 313 313 313 313 314 314 314 314 314 314 314 314 314 314 315 315 315 315 315 314 314 314 313 312 310 309 308 307 306 305 303 301 301 301 301 301 301 301 301 301 301 301 301 301 301 301 301 301 301 300 300 300 300 300 299 300 300 300 300 300 300 300 300 300 300 299 299 298 297 296 296 296 296 295 296 295 295 295 295
313 312 312 312 312 312 312 312 312 312 313 313 313 313 313 313 313 314 314 314 314 314 315 315 315 315 314 314 314 313 311 309 308 307 306 306 304 302 301 301 301 301 301 300 301 301 301 301 301 301 300 300 301 300 300 300 299 299 299 299 299 299 299 300 300 300 300 299 299 299 299 298 298 297 296 296 296 296 295 295 296 296 296 295 295
312 312 312 312 312 312 312 312 312 312 312 312 312 312 312 312 313 313 313 313 314 314 314 314 314 315 314 314 314 314 312 310 309 307 306 306 305 304 302 301 300 300 300 300 300 301 301 301 301 300 300 300 300 300 300 300 299 299 299 299 299 299 299 299 300 300 299 299 299 298 298 297 297 296 296 295 295 295 295 295 295 295 296 296 296
312 312 311 311 311 311 312 312 312 312 312 312 312 312 312 312 312 313 313 313 313 313 313 314 314 314 314 314 314 314 313 312 310 308 306 306 306 305 303 301 300 300 300 300 300 300 300 300 300 300 300 300 300 300 300 299 298 298 298 298 298 299 299 299 299 299 299 299 298 298 297 297 296 295 295 295 294 295 295 295 295 295 295 295 295
312 312 312 311 311 310 311 311 311 311 311 311 311 311 311 311 312 312 312 312 313 313 313 313 313 314 314 314 314 314 314 313 310 308 307 305 305 305 304 302 300 300 300 300 299 299 300 300 300 299 299 299 299 299 299 299 298 298 298 298 298 298 298 299 299 299 299 299 298 298 297 296 296 295 294 294 294 294 294 294 295 295 295 295 295
312 312 312 311 311 310 310 310 310 310 310 310 310 310 310 310 311 311 311 311 312 312 312 312 313 313 313 314 314 314 314 314 312 309 307 305 304 304 305 303 301 300 300 299 299 299 299 299 299 299 299 299 299 299 299 299 298 298 298 298 298 298 298 298 298 299 299 299 298 297 296 296 295 294 294 294 294 294 294 294 294 294 294 294 294
313 313 312 312 312 311 310 310 309 309 309 309 309 309 309 309 309 310 310 310 310 311 311 311 312 312 313 313 313 314 314 314 313 311 308 306 305 304 304 304 303 301 300 299 299 299 299 299 299 299 299 299 299 299 299 299 299 298 298 298 298 298 298 299 299 299 299 298 298 297 296 296 295 295 294 294 294 294 294 294 294 294 294 294 294
313 313 313 312 312 311 311 311 310 310 309 309 309 308 309 309 309 309 309 309 309 309 310 310 310 311 311 312 313 313 314 314 314 313 311 308 306 304 303 304 304 303 300 299 299 299 299 299 299 299 298 299 299 299 299 299 298 298 298 298 299 298 299 300 299 298 298 298 298 297 296 296 296 295 295 295 295 294 294 294 294 294 294 294 293
312 313 313 313 312 311 311 311 311 310 310 310 309 308 308 308 308 309 309 309 309 310 310 310 310 310 311 311 311 312 312 313 313 313 312 310 307 305 303 303 303 303 302 300 299 299 299 299 299 298 298 298 298 298 299 299 298 298 298 299 299 299 300 300 299 298 298 298 298 298 297 296 296 296 295 295 295 294 294 294 294 294 294 293 293
312 313 313 313 313 312 311 311 310 310 310 310 309 309 308 308 308 308 308 309 309 309 310 310 310 310 310 310 310 310 311 311 312 313 312 311 308 306 304 302 302 303 303 301 300 299 299 298 298 298 298 298 298 298 298 298 298 298 298 298 299 299 299 299 299 299 298 298 298 298 297 297 297 296 296 295 294 294 294 294 294 293 293 293 293
313 313 312 312 312 312 312 311 310 310 310 309 309 308 308 308 308 308 308 308 308 308 308 309 309 309 309 309 309 309 309 310 310 311 311 311 309 307 305 303 301 301 302 302 301 300 299 298 298 298 298 298 298 298 298 298 298 298 298 298 298 298 298 298 298 299 299 299 298 298 298 298 297 297 296 295 294 294 294 294 293 293 293 293 293
312 312 312 311 311 312 312 312 311 311 310 309 308 308 307 307 307 307 307 307 307 307 307 307 308 308 308 308 308 308 308 308 309 309 310 310 310 308 306 303 301 300 301 301 301 301 299 298 298 297 297 297 298 298 298 298 298 298 298 298 298 298 298 298 298 298 298 299 299 298 298 298 298 297 296 295 295 294 294 294 293 293 293 293 293
312 312 312 311 311 311 311 311 311 311 311 309 308 307 307 306 306 306 306 306 306 306 306 306 306 307 307 307 307 307 307 308 308 308 308 308 309 308 307 305 302 300 300 300 301 301 300 299 298 297 297 297 297 297 297 297 297 297 298 298 298 298 298 298 298 298 298 298 298 298 298 298 298 297 297 296 295 294 294 294 293 293 293 293 292
311 312 312 312 311 311 310 310 310 310 311 310 308 307 306 306 305 305 305 305 305 305 305 305 305 306 306 306 306 306 307 307 307 307 307 307 307 307 307 306 304 302 300 300 300 301 301 300 298 297 297 297 297 297 297 297 297 297 297 297 297 298 298 298 298 298 298 298 298 298 298 298 297 297 297 296 295 295 294 294 293 293 293 293 292
Wind_Speed
22 22 21 21 19 19 19 19 19 20 19 18 17 16 15 14 14 14 14 14 14 13 12 11 10 10 9 9 8 8 7 7 6 6 6 6 6 5 5 4 4 3 4 4 5 5 4 3 3 2 1 4 4 4 4 5 5 6 6 6 6 6 6 7 8 8 8 8 7 7 6 5 5 5 5 5 6 6 6 5 5 5 4 3 3
18 22 22 22 20 20 19 19 19 20 20 19 17 16 15 14 15 15 15 14 14 13 12 11 10 9 9 8 7 6 6 6 6 6 6 5 5 5 4 4 4 3 3 3 4 4 4 4 3 2 2 2 2 3 4 4 4 4 4 4 4 4 4 5 6 6 7 6 6 6 5 4 4 5 4 4 4 4 4 4 4 3 3 3 2
15 21 22 22 21 21 19 19 19 19 20 19 18 17 16 15 15 15 15 14 14 13 12 12 11 10 9 8 7 7 7 7 6 6 6 6 5 5 4 4 3 3 2 2 3 4 4 4 4 4 3 2 1 2 2 2 3 3 3 3 3 2 2 3 3 4 4 4 4 4 4 3 3 4 3 3 3 3 3 3 3 2 2 2 1
14 20 21 22 21 22 21 20 19 19 20 19 18 18 17 16 15 15 14 14 14 14 13 12 11 10 9 9 8 8 8 7 7 7 6 6 6 5 5 4 4 3 3 3 4 4 5 6 6 6 5 5 3 3 2 1 3 3 3 3 2 2 2 1 1 2 2 3 3 3 4 3 2 2 2 2 2 2 2 1 1 1 1 2 1
12 19 21 21 21 22 22 20 20 20 20 20 19 19 17 16 16 15 15 14 14 14 12 12 11 10 9 9 9 8 8 8 7 7 6 6 6 6 6 5 5 4 4 4 5 6 6 7 7 7 7 7 6 5 3 1 3 3 3 2 2 3 2 2 2 1 1 1 1 1 2 2 1 1 1 1 2 2 2 1 1 1 0 1 1
12 18 20 21 21 21 21 21 20 20 21 21 20 20 19 18 17 17 16 15 14 14 12 12 11 10 9 9 8 8 9 8 8 7 6 6 6 6 6 6 6 5 5 6 7 7 7 7 7 7 7 7 7 6 5 4 5 5 4 4 4 4 4 4 3 3 2 1 1 1 1 1 0 1 0 1 3 3 3 3 2 1 1 1 1
11 16 20 21 21 21 20 20 20 20 21 22 21 21 20 19 18 18 17 16 15 14 13 12 11 10 9 9 8 9 11 10 10 9 8 7 7 7 8 8 8 7 7 8 8 7 7 7 7 8 8 8 8 7 7 7 8 8 7 6 6 6 6 6 5 5 4 4 4 3 3 2 1 2 2 2 3 4 5 5 4 3 3 3 2
11 15 18 20 21 20 20 20 20 20 21 22 22 21 21 20 19 19 18 17 16 15 14 13 11 11 10 10 10 11 13 12 11 11 10 9 9 9 10 10 10 10 10 10 9 9 8 9 9 9 9 8 9 9 10 11 11 10 10 9 8 8 8 8 8 7 7 7 6 6 5 5 3 4 4 4 4 5 6 7 6 6 5 5 5
11 14 17 19 20 19 19 20 20 20 20 21 21 21 21 21 20 19 19 18 17 16 15 13 12 12 12 12 13 14 14 13 12 12 12 11 11 11 11 12 12 12 11 11 11 11 11 11 11 11 11 10 11 12 14 14 13 12 11 10 10 9 9 10 10 9 9 9 9 8 7 6 5 5 5 6 6 7 6 6 7 8 7 7 8
12 14 16 18 19 19 20 21 21 21 20 20 20 20 20 20 20 20 19 18 16 16 15 13 13 14 14 15 16 16 15 14 14 14 14 13 13 13 13 13 14 14 13 13 12 12 13 13 13 13 13 13 14 14 15 14 13 13 12 11 11 10 10 10 10 10 11 11 11 11 9 8 6 6 7 7 8 9 8 7 8 10 10 10 10
13 14 16 18 19 19 20 21 21 22 21 20 20 20 20 20 20 20 18 17 16 15 16 16 15 15 16 17 18 18 16 16 16 15 15 14 15 14 14 15 15 14 13 13 13 13 13 13 13 14 14 14 14 13 13 13 12 12 11 10 9 9 9 9 10 10 11 11 11 11 11 9 6 7 10 9 9 11 10 10 11 12 12 12 11
14 15 16 18 19 20 20 21 21 22 22 21 21 20 20 20 19 19 17 16 16 16 17 18 17 17 18 18 19 18 17 17 16 17 16 15 15 14 14 14 14 14 13 13 13 12 11 11 11 11 11 11 11 11 11 10 9 8 7 6 5 5 5 5 6 7 9 10 11 11 11 10 8 9 10 10 12 13 13 13 13 13 13 13 12
15 15 16 17 18 20 21 21 21 21 22 22 21 21 20 20 19 18 18 16 17 18 19 19 20 20 20 19 19 18 17 17 16 15 14 13 13 12 12 13 12 12 11 11 10 10 9 8 9 9 9 9 8 8 7 6 5 4 3 3 3 2 2 2 3 3 4 6 8 9 10 11 11 12 10 11 13 14 15 15 16 16 15 15 13
16 16 16 17 18 20 21 21 21 22 22 22 22 21 20 20 20 19 19 19 19 20 21 21 21 21 21 21 20 19 18 17 14 12 12 11 11 11 11 10 10 9 9 9 8 7 7 7 7 6 6 5 5 4 4 3 3 3 2 2 2 2 2 2 2 2 2 2 4 5 8 10 12 13 13 13 12 13 15 15 17 17 17 15 14
16 17 17 17 18 19 21 22 22 22 22 22 22 22 21 21 21 20 20 21 21 22 22 22 22 22 21 21 20 19 17 15 11 10 11 11 11 10 9 8 8 8 7 7 6 6 5 5 5 4 4 3 3 3 3 3 3 3 3 3 3 3 2 2 2 2 2 2 2 3 5 8 10 12 14 14 14 14 14 15 16 16 16 16 16
16 17 18 18 19 20 21 22 22 22 22 23 22 22 22 21 21 21 21 22 22 22 22 22 22 21 20 20 18 17 16 13 11 11 11 10 10 9 8 8 7 7 6 6 5 5 5 5 5 4 4 4 4 4 3 3 3 3 3 3 3 3 3 3 3 3 3 2 2 3 4 6 7 9 13 14 15 15 14 15 15 15 16 16 17
17 18 19 19 20 20 21 22 23 23 23 23 23 22 22 22 21 21 21 22 22 21 21 21 21 20 19 19 18 18 16 13 12 12 11 10 10 9 8 8 7 7 6 6 6 6 6 6 6 5 5 5 4 4 4 4 4 3 3 4 4 4 4 3 3 3 3 3 3 4 5 6 7 8 10 12 13 13 14 14 14 15 16 16 17
17 18 19 20 21 22 22 23 23 24 24 24 24 23 22 22 21 21 21 22 22 21 21 21 21 20 19 19 18 17 15 13 13 12 12 11 11 10 9 9 8 7 7 7 7 6 6 6 6 5 5 5 5 4 4 4 4 4 4 4 4 4 4 4 4 4 4 4 4 5 6 7 7 8 9 10 11 12 12 12 13 14 15 15 16
19 19 20 21 23 23 24 24 24 25 25 25 25 24 23 22 22 21 22 22 22 22 22 22 22 20 19 19 18 16 15 14 13 13 13 13 12 11 10 10 9 8 8 8 7 7 7 6 6 5 5 5 5 4 4 4 4 4 4 4 4 4 3 3 3 4 4 5 5 6 7 8 8 9 10 10 11 11 11 11 11 12 13 13 13
21 21 21 22 23 25 25 25 25 25 26 27 27 26 25 24 23 23 23 23 23 23 22 22 21 20 19 19 17 16 16 15 15 15 15 14 13 12 11 11 10 9 9 9 8 8 7 7 6 6 6 5 5 4 4 4 4 4 4 3 3 3 3 3 3 3 4 5 6 7 8 8 9 10 11 11 11 11 11 11 11 11 12 12 12
22 22 22 23 24 26 26 26 27 27 27 28 28 28 27 26 25 25 24 24 24 24 23 23 22 21 20 19 18 17 17 17 17 16 16 15 14 13 12 12 11 11 10 9 9 8 8 8 7 6 6 5 5 4 4 4 3 3 3 2 2 2 2 2 3 3 4 5 6 7 8 9 10 11 12 12 12 11 12 12 12 12 12 12 12
22 23 24 25 25 26 27 27 27 27 28 29 29 29 29 28 27 27 27 26 26 25 25 24 23 21 21 20 19 18 19 18 18 18 17 16 15 14 14 13 12 12 11 10 10 9 9 8 7 6 6 5 5 4 4 3 3 3 2 2 1 1 1 1 2 2 4 5 6 7 8 9 11 12 13 13 13 12 13 13 12 13 13 12 12
24 24 24 26 27 27 27 28 28 28 29 30 30 30 31 30 29 29 29 29 28 27 26 25 24 23 21 20 20 20 20 20 20 19 17 16 16 16 15 14 14 13 13 12 11 11 10 9 8 7 6 6 5 5 4 4 3 3 2 2 2 1 1 1 1 1 2 4 5 6 7 9 10 12 13 13 13 13 14 14 13 13 13 13 13
24 24 25 27 28 28 28 28 29 29 30 31 31 32 32 32 31 31 31 30 30 29 28 26 25 24 22 22 22 21 21 21 21 20 18 18 18 17 17 16 15 15 14 14 13 12 10 9 9 8 7 6 6 5 5 4 4 3 3 3 2 2 2 2 1 2 2 3 4 5 6 8 9 11 12 13 14 14 14 14 13 13 13 13 13
25 27 28 28 27 28 29 29 30 30 31 32 32 33 33 33 33 33 33 32 32 31 29 28 27 26 24 24 23 22 22 23 23 22 21 21 20 19 19 18 17 16 15 15 14 12 11 11 10 9 8 7 7 6 5 4 4 4 4 3 3 3 2 2 2 2 2 2 3 4 5 6 8 10 11 13 13 14 14 14 14 14 14 13 13
26 28 28 27 27 28 30 30 31 32 33 32 32 33 34 34 34 34 34 34 34 33 31 30 28 27 27 26 25 23 25 26 25 24 23 22 22 21 20 19 18 17 16 15 14 13 13 12 11 10 9 8 7 6 5 5 4 4 4 4 3 3 3 3 2 2 2 2 3 3 4 5 7 9 11 12 13 14 14 14 14 14 14 14 13
24 26 26 27 27 29 30 31 32 34 34 33 33 34 34 35 35 35 35 35 35 34 33 32 31 29 29 28 26 26 27 27 27 26 25 24 23 22 21 19 18 18 17 17 16 16 15 13 12 11 10 9 7 6 6 5 4 4 4 4 4 4 4 3 3 2 3 3 3 3 4 5 6 8 10 11 12 13 14 14 14 14 14 13 13
24 25 26 27 28 28 30 31 32 34 35 35 35 35 35 36 36 36 36 36 36 36 35 34 33 31 30 29 28 28 28 29 29 28 27 26 25 24 22 20 20 19 19 19 18 17 16 14 13 12 11 9 8 7 6 5 5 5 4 4 4 4 4 4 4 3 3 3 3 4 4 5 6 8 9 10 12 13 13 13 13 14 14 13 13
24 24 25 27 28 28 30 31 32 34 35 36 37 37 36 37 38 38 37 38 37 36 36 36 35 34 33 32 31 30 30 31 30 30 30 28 27 25 23 23 22 21 21 20 19 18 17 16 14 13 11 10 9 8 7 6 6 5 5 5 5 5 5 5 5 4 4 4 4 4 5 6 7 8 9 10 11 12 13 13 13 15 14 13 14
22 23 25 26 27 29 30 32 33 34 34 36 38 38 38 38 39 39 39 39 38 37 38 37 37 36 35 34 33 32 32 32 32 32 31 30 29 27 26 25 24 23 23 22 21 20 18 17 15 14 12 11 10 9 8 7 7 6 5 5 5 5 6 5 5 5 5 4 5 5 6 7 8 8 9 11 11 12 13 12 13 14 13 13 14
24 24 25 25 27 29 30 32 33 34 35 37 38 38 39 40 40 40 41 40 39 39 39 38 39 39 38 36 35 34 33 33 33 33 33 32 31 29 28 27 26 25 24 23 22 21 20 18 17 15 14 13 12 11 9 8 8 7 6 6 6 6 6 6 6 6 5 5 5 6 7 7 8 9 10 11 12 13 13 13 13 13 12 13 14
27 26 25 26 27 28 30 32 34 35 37 38 38 39 40 41 41 41 42 41 40 40 40 40 40 40 39 38 37 36 35 35 35 34 34 34 33 31 30 28 27 26 25 25 24 23 21 20 19 17 16 15 13 12 10 9 8 7 7 7 7 7 7 7 7 7 6 6 6 7 7 8 9 10 10 11 12 12 13 13 14 14 13 13 13
31 29 29 29 28 28 29 31 33 36 37 39 39 39 40 41 42 42 42 42 41 41 41 41 41 41 40 39 39 38 38 37 36 35 36 35 34 33 31 30 28 27 27 26 25 25 23 22 21 19 18 16 15 13 11 11 9 8 8 8 8 8 8 8 8 8 8 7 7 8 8 8 9 10 11 11 11 11 12 12 13 13 14 13 13
35 34 33 32 31 30 29 30 33 34 36 38 40 40 40 41 43 43 43 43 42 42 42 42 42 42 41 41 41 41 40 39 38 37 37 37 36 34 33 31 30 29 28 28 27 26 25 24 22 21 19 17 16 14 13 12 11 10 9 9 9 9 9 9 9 8 8 8 8 8 8 9 9 10 10 10 10 10 11 11 12 12 13 13 13
35 36 36 33 34 34 32 32 32 33 35 37 39 40 41 42 42 43 44 43 42 43 44 43 43 43 42 42 43 43 42 41 40 38 38 38 38 37 35 34 32 30 29 29 29 28 27 25 24 22 20 19 18 16 15 14 12 11 11 10 10 9 9 9 9 9 9 9 9 9 9 9 10 10 10 10 10 10 10 10 11 11 12 13 13
30 31 31 30 32 34 34 33 33 33 35 35 37 38 41 42 42 43 44 43 43 44 45 44 44 44 44 44 45 45 44 43 41 40 39 39 39 38 37 36 34 32 32 31 31 30 29 27 25 24 22 21 19 18 17 15 14 13 12 11 11 10 10 9 9 9 9 9 9 9 9 9 9 9 10 10 10 10 10 11 11 11 11 12 13
23 24 25 25 27 29 31 32 33 33 33 34 36 37 40 42 43 44 44 44 44 45 45 45 46 46 46 46 46 46 45 44 43 41 41 40 40 39 39 38 36 35 34 34 33 32 31 29 27 25 24 23 21 20 18 17 16 15 13 12 11 10 10 10 9 9 9 9 9 9 9 9 9 10 10 9 9 10 10 11 12 12 12 12 12
18 18 20 21 22 24 25 27 30 32 32 34 35 37 38 40 43 45 45 45 45 46 46 47 48 48 48 48 47 46 46 46 45 43 42 41 40 40 40 39 38 38 37 36 35 34 32 30 29 28 26 25 23 22 20 19 18 16 15 14 13 12 11 10 10 10 10 10 9 9 9 10 10 10 10 9 9 10 11 11 12 13 13 13 12
14 15 16 18 18 20 22 24 27 30 31 33 35 37 38 40 42 44 45 46 47 47 48 49 50 50 50 49 48 47 47 47 47 45 44 43 41 41 41 40 40 40 39 38 37 36 34 32 31 30 28 27 25 24 22 20 19 17 16 15 14 13 12 11 11 10 10 10 10 10 10 10 11 11 10 10 10 11 11 12 12 13 13 13 13
11 12 14 15 16 16 19 21 24 26 28 32 34 37 38 40 42 44 45 47 48 48 49 50 51 51 51 50 50 49 49 49 48 47 46 44 43 42 42 42 42 42 41 41 39 37 35 34 33 32 30 29 28 26 24 22 20 19 17 16 16 15 13 12 12 11 11 11 11 11 11 12 12 12 12 12 12 12 12 13 13 13 14 14 14
7 9 12 13 14 15 17 19 21 24 26 30 32 35 37 39 41 42 43 44 46 48 49 51 51 52 52 51 51 51 50 50 49 49 48 46 45 44 44 44 44 44 43 42 40 38 37 36 34 33 32 31 30 28 26 24 22 20 19 18 17 16 14 13 13 12 12 12 12 12 12 13 13 13 13 13 13 13 13 13 14 14 14 15 15
10 7 9 11 13 14 16 18 20 22 24 27 30 32 35 37 38 39 40 41 44 46 48 50 51 52 53 53 53 52 52 51 50 50 49 48 48 47 46 45 45 44 44 43 41 40 38 37 36 35 35 34 32 30 28 26 24 23 21 19 18 17 15 15 14 14 14 13 13 13 13 13 13 13 13 13 13 13 13 13 14 14 14 15 15
16 12 9 9 11 14 16 17 20 21 22 25 26 28 31 33 35 36 38 39 41 44 46 49 50 52 53 53 54 54 54 53 51 51 51 51 50 49 47 46 45 45 45 44 43 42 40 40 39 38 37 36 34 32 30 28 26 25 22 18 17 15 14 17 18 16 15 15 14 14 14 14 14 14 13 13 13 14 14 13 13 13 14 14 15
21 18 15 10 9 12 14 16 18 20 21 23 23 25 28 30 32 34 36 38 39 41 43 46 48 50 52 53 54 54 54 53 52 52 52 52 52 51 49 47 46 45 45 45 45 45 43 42 41 41 40 38 36 34 32 31 29 27 23 18 15 13 12 15 17 17 16 15 15 16 16 16 16 15 15 16 16 17 17 15 14 13 14 14 15
25 24 21 16 11 9 10 13 16 18 20 21 21 23 26 27 29 31 34 36 38 40 42 43 46 48 50 52 53 53 54 53 53 53 53 53 53 52 51 49 47 46 46 47 47 46 45 45 43 43 42 40 38 36 34 33 32 30 27 22 16 12 12 14 13 14 15 15 16 17 17 17 18 18 18 19 19 20 19 17 16 15 15 15 16
28 27 25 22 16 10 7 8 11 14 16 17 18 21 23 25 27 29 32 34 36 37 39 41 42 44 45 47 49 50 51 52 52 53 53 54 54 54 53 51 49 48 47 47 48 47 47 46 45 44 43 41 40 38 36 35 33 33 33 30 24 17 15 15 12 11 14 16 17 17 18 19 19 19 19 19 20 20 20 19 17 16 16 16 16
28 27 26 25 22 16 11 7 7 9 11 13 15 18 21 23 26 28 30 31 32 34 34 35 37 38 39 42 44 45 47 49 51 53 54 55 55 54 54 52 51 50 49 48 49 48 48 47 46 45 44 43 42 41 39 36 35 35 35 34 33 28 22 19 16 13 12 14 17 17 18 20 20 20 20 19 19 20 20 19 17 16 16 16 17
28 27 26 25 24 21 16 11 8 8 8 10 12 15 18 21 23 25 28 30 31 32 33 32 32 34 35 37 39 40 42 45 48 51 53 54 55 55 54 53 53 52 50 50 49 49 48 48 47 46 45 45 44 42 41 39 38 38 36 34 34 33 30 27 24 20 14 12 15 18 19 19 20 20 20 20 20 20 20 19 18 17 17 17 18
29 28 27 26 25 23 20 16 11 8 7 8 10 12 14 18 21 23 25 27 29 31 33 33 32 33 33 34 35 36 38 40 43 47 50 52 54 55 55 55 54 54 52 51 50 49 48 48 48 48 47 47 45 43 43 43 41 39 38 36 35 33 32 30 28 25 21 17 15 18 20 19 20 21 21 20 20 21 21 19 18 17 17 18 18
28 28 27 27 27 26 24 21 16 11 7 7 8 9 11 14 18 21 23 25 27 29 31 32 33 33 33 33 33 34 34 35 38 41 44 47 50 53 55 56 55 55 54 52 51 50 49 49 48 48 47 47 47 46 45 44 43 41 40 38 36 35 33 32 30 27 26 23 20 20 22 20 20 21 20 21 21 21 21 20 19 18 18 19 19
27 27 27 28 28 28 27 25 22 17 11 7 6 7 9 12 14 17 20 22 25 28 29 31 33 33 32 32 32 32 32 32 34 36 39 42 46 50 53 55 56 56 55 53 52 51 50 49 48 48 48 48 48 47 47 46 44 43 43 41 40 38 35 34 32 29 27 26 24 24 23 21 20 21 20 20 21 21 21 20 20 19 19 19 20
Wind_Direction
189 195 196 196 199 201 199 192 186 182 183 184 184 183 181 182 182 181 181 180 179 178 177 178 177 178 180 182 184 184 188 189 193 196 197 191 187 183 179 177 170 159 150 140 127 129 135 141 138 121 82 97 89 67 77 82 79 79 80 80 79 77 75 72 72 74 75 82 92 97 94 84 68 60 50 41 48 59 74 88 100 100 100 122 126
200 200 195 196 197 202 203 197 192 187 188 185 186 184 182 182 180 179 179 181 182 183 184 184 186 187 190 191 193 197 204 210 214 217 217 214 212 209 206 200 193 187 174 151 132 150 161 169 186 196 195 132 96 88 94 83 77 74 74 77 79 74 71 69 69 72 74 79 87 96 96 89 75 67 60 49 48 53 69 79 80 86 88 98 108
205 204 198 199 198 202 203 201 198 194 193 189 188 187 186 185 181 182 183 186 187 189 190 189 191 194 196 198 202 209 215 219 223 227 230 229 226 223 221 218 215 213 198 181 166 186 194 202 220 221 216 212 220 160 137 85 60 51 52 53 56 57 54 59 63 67 71 76 82 93 96 86 72 68 59 56 53 51 61 73 77 78 83 82 83
199 203 202 202 201 202 204 203 201 199 197 194 193 191 191 189 186 187 191 195 194 194 195 195 195 199 202 206 213 217 219 221 225 229 233 234 232 227 226 229 227 224 210 196 191 210 222 225 229 226 231 237 239 212 183 76 35 25 25 21 17 10 4 10 33 54 61 68 72 84 91 75 50 62 56 46 36 38 43 47 75 87 101 112 121
194 198 203 204 204 204 205 205 203 202 199 198 197 195 195 193 191 190 196 200 198 201 203 202 202 207 210 215 217 216 214 217 226 229 230 232 233 229 227 230 230 224 202 198 209 227 237 235 234 236 242 240 237 230 212 285 343 343 343 340 336 327 324 320 315 320 10 46 51 65 93 93 59 66 88 31 321 321 329 333 350 4 39 182 195
192 195 202 205 205 206 207 206 204 202 200 201 200 200 199 197 196 195 200 202 202 204 207 207 207 214 217 219 217 216 216 214 224 229 229 227 228 229 227 228 231 216 195 211 228 239 245 245 247 247 249 246 244 239 231 266 297 299 297 294 295 295 295 293 289 282 273 269 273 262 256 208 121 278 241 303 290 290 293 287 292 312 320 287 254
194 195 201 205 205 207 208 207 206 204 202 203 203 203 202 201 201 201 204 205 207 207 210 211 211 215 216 218 214 218 219 212 219 227 226 223 225 228 228 229 231 221 211 227 237 240 242 246 252 251 254 255 249 240 241 267 286 287 283 278 275 275 274 274 273 272 267 261 258 252 257 258 253 269 266 271 277 277 278 275 267 264 266 268 253
201 197 202 206 207 208 207 208 208 207 206 207 208 208 207 207 206 206 209 211 213 214 216 216 214 215 212 213 211 219 222 213 216 225 225 223 226 228 231 235 238 235 233 239 243 240 239 242 245 249 255 256 247 243 255 274 284 283 279 274 268 264 261 260 260 261 261 258 256 252 252 256 253 257 259 256 271 277 278 278 272 262 256 257 254
210 201 203 207 209 209 207 208 210 210 210 210 211 212 212 211 210 211 213 216 218 218 220 218 213 214 213 212 213 221 224 219 220 226 229 228 232 236 239 242 245 246 244 246 249 245 241 243 244 247 251 251 250 255 266 277 281 281 277 272 266 261 256 253 252 251 252 251 250 250 248 248 247 253 259 254 261 269 269 273 273 267 261 259 259
215 206 204 207 210 210 209 209 210 212 212 212 212 212 212 211 209 210 213 215 218 218 217 212 208 211 214 214 216 223 225 225 226 230 234 236 242 246 247 246 249 251 251 251 251 249 245 245 247 250 253 255 259 264 271 275 277 277 274 272 268 263 258 253 250 246 245 245 244 246 245 245 247 250 253 253 256 260 260 261 268 270 267 266 265
218 211 206 206 210 211 211 212 212 214 214 214 212 212 211 211 209 209 212 212 212 211 210 208 206 211 214 216 220 226 228 229 232 235 239 244 250 250 247 245 248 251 253 254 254 254 250 247 249 254 258 261 265 268 270 272 273 273 272 272 270 266 261 256 250 246 244 242 242 242 243 242 240 244 244 244 248 251 254 257 262 267 269 270 271
222 217 212 209 210 211 213 214 215 215 216 216 215 214 213 213 212 208 208 207 205 204 208 210 210 212 216 221 228 232 231 232 236 241 247 250 250 246 243 244 247 250 250 252 255 256 255 252 253 256 260 263 265 267 269 270 270 270 271 272 272 270 266 260 252 248 244 242 242 241 242 237 231 242 244 241 246 251 253 255 258 262 266 271 274
227 224 220 216 213 212 214 216 217 218 219 219 218 217 213 214 213 207 204 200 201 204 208 212 215 218 223 228 234 236 236 238 240 245 249 247 247 244 242 245 248 250 249 249 250 253 257 259 261 261 261 262 263 263 264 264 264 267 270 273 275 275 273 268 259 253 247 244 243 242 243 239 237 242 245 245 249 255 255 255 258 259 263 268 275
230 230 228 223 219 217 216 217 218 219 221 222 221 219 215 214 214 207 202 200 204 210 213 217 221 225 230 234 236 241 245 246 246 248 248 243 245 245 242 244 247 247 246 242 242 249 255 259 260 258 256 252 248 244 244 244 250 258 264 271 276 276 279 278 278 276 269 260 251 247 243 243 244 241 242 246 250 255 257 259 260 262 265 266 271
230 231 231 230 226 223 220 220 220 220 222 223 222 222 220 218 215 208 204 206 211 216 219 223 228 231 234 236 237 243 248 250 250 247 245 243 242 242 240 240 239 237 235 231 231 236 238 239 237 235 232 224 225 227 232 240 246 253 259 265 270 274 277 278 280 282 285 290 287 278 256 253 252 245 245 249 252 255 257 260 263 267 270 270 270
228 228 230 231 230 227 225 225 224 222 223 224 223 222 223 222 219 215 211 214 218 221 225 229 235 238 239 239 238 241 247 252 251 244 242 240 237 236 234 232 230 225 221 215 211 211 211 210 211 212 215 218 224 230 235 242 247 252 258 262 267 270 272 275 275 276 281 292 295 293 281 272 266 256 254 257 261 264 264 266 270 273 273 273 271
226 227 228 229 229 229 228 228 227 226 225 225 226 224 224 224 223 222 219 221 225 228 233 237 241 244 245 244 241 241 248 250 244 240 237 235 232 230 227 224 220 215 209 203 201 200 201 202 204 209 212 217 221 228 234 241 248 253 258 262 265 267 270 271 271 275 277 283 290 289 286 285 282 275 272 273 277 281 283 284 285 283 280 276 272
229 229 229 228 228 229 229 229 228 227 228 227 227 226 225 225 226 226 226 228 231 234 237 240 243 246 248 246 243 242 246 242 237 235 230 228 225 223 220 218 215 209 205 201 201 201 202 204 205 210 211 214 216 222 229 236 245 251 257 262 265 269 272 273 273 274 275 280 282 283 283 286 288 286 285 287 290 292 295 296 292 289 286 281 276
235 234 231 228 227 228 229 230 229 228 228 229 229 229 228 227 228 229 230 232 234 237 239 241 243 245 246 244 242 240 240 237 233 229 225 222 218 217 216 214 212 207 205 203 205 205 205 207 207 210 210 212 215 219 224 231 237 240 245 247 253 259 264 269 272 271 271 274 274 276 279 281 283 285 285 289 293 295 297 295 292 290 288 286 283
239 239 235 231 229 228 229 229 229 229 229 229 230 230 230 228 229 230 232 234 236 238 240 243 244 245 244 242 240 237 235 233 228 224 221 218 214 214 213 212 210 207 207 206 206 206 206 207 208 210 211 214 218 223 225 226 225 225 226 224 229 230 235 242 245 252 255 260 264 268 272 275 278 280 281 283 288 290 292 290 289 289 288 289 288
246 244 240 236 232 231 229 230 230 230 230 230 230 230 231 230 229 230 231 232 235 238 240 242 243 243 242 240 238 233 231 229 225 221 217 215 213 212 211 210 209 208 208 207 206 206 206 207 209 210 213 219 223 228 229 227 226 223 222 218 218 215 215 219 224 230 238 246 252 259 265 270 273 275 277 278 281 284 286 285 285 285 284 286 285
252 249 246 242 238 235 232 232 232 232 231 231 231 231 232 230 230 230 230 232 234 236 238 240 242 241 239 237 234 231 230 227 222 219 216 214 212 211 210 209 208 208 208 206 207 206 208 208 209 212 217 224 229 235 236 238 239 241 245 246 247 236 234 228 234 235 238 243 246 252 257 263 268 271 273 274 278 281 282 281 281 282 282 282 281
255 253 252 249 243 241 237 236 235 234 233 232 232 232 232 232 230 230 231 231 233 235 237 238 240 239 238 236 233 231 229 225 221 218 216 213 212 211 209 208 207 207 207 206 206 208 210 210 210 215 221 227 233 238 243 248 253 261 270 277 291 299 312 310 292 274 263 260 257 257 256 259 263 266 269 271 274 277 278 279 280 281 281 279 277
260 258 255 251 248 245 242 240 238 236 235 234 233 232 233 233 232 231 231 231 233 234 235 236 237 238 237 235 233 232 228 224 220 217 214 213 213 211 210 209 208 207 207 206 207 209 210 211 214 218 224 229 235 241 246 255 264 273 283 293 304 312 322 331 330 318 300 289 279 273 267 265 265 266 269 270 271 274 275 278 280 281 279 278 277
261 257 253 252 251 249 247 244 241 238 237 236 235 234 234 234 233 233 233 232 233 234 234 235 234 235 235 234 234 230 227 224 220 217 214 214 214 212 211 210 208 209 208 208 209 210 210 212 215 219 223 228 233 239 245 254 265 275 285 294 304 314 321 328 330 323 314 304 295 287 278 273 271 270 271 271 272 273 275 277 279 278 276 277 278
258 254 252 252 251 249 248 246 244 241 239 239 238 236 235 235 235 235 235 234 235 236 235 235 234 234 233 233 232 228 226 224 221 218 217 218 218 215 214 212 211 211 209 209 209 209 211 214 217 219 222 226 230 235 241 252 264 273 285 297 306 314 319 323 321 314 309 304 301 295 286 279 273 272 272 274 275 275 277 278 277 276 275 277 278
258 254 252 251 248 246 245 245 245 244 242 241 240 238 237 237 237 237 237 236 237 237 236 236 235 234 233 233 232 228 226 225 223 221 221 221 221 219 217 215 213 212 212 211 211 212 214 217 219 221 223 226 229 234 242 251 264 277 289 301 311 317 319 319 315 309 304 302 302 296 291 283 276 274 274 276 277 278 278 277 277 276 276 277 277
253 249 246 244 243 242 242 243 244 244 244 242 241 241 240 238 238 238 238 238 239 239 238 238 237 235 234 234 232 229 228 227 225 224 223 224 223 222 219 216 214 214 214 214 214 215 217 219 221 223 225 227 230 235 243 253 265 278 292 304 313 317 318 316 312 309 304 304 303 298 291 284 277 274 273 274 274 275 275 273 273 273 275 277 276
250 247 243 240 238 238 239 240 240 242 243 242 242 242 241 240 239 239 238 239 239 239 239 238 238 237 235 234 233 231 229 228 228 226 226 226 225 223 220 218 216 216 216 216 217 217 218 220 222 224 225 228 232 238 246 255 267 279 292 304 311 314 314 312 309 307 304 301 298 295 291 284 279 274 270 268 267 268 268 267 266 268 272 274 274
255 254 250 246 241 239 238 238 239 240 241 242 242 241 242 241 240 240 239 239 239 239 239 238 237 237 236 235 234 233 231 231 229 228 227 227 227 225 222 220 218 218 218 218 218 219 220 220 222 224 227 229 233 239 247 255 265 277 290 300 307 311 309 308 305 302 299 295 291 288 286 283 279 275 271 267 263 261 260 258 259 263 266 268 271
263 261 260 257 249 244 241 240 240 240 241 241 241 241 242 242 242 241 240 240 240 239 240 239 237 237 236 235 234 234 233 232 231 230 229 228 228 226 224 222 221 220 220 220 220 220 221 222 223 224 227 230 234 239 245 253 261 272 285 295 302 306 307 307 304 301 297 291 287 284 281 281 278 275 270 266 263 258 254 251 254 257 256 258 267
272 271 271 268 261 254 249 245 243 242 242 242 242 241 241 242 242 242 241 241 241 240 240 239 238 237 237 235 234 235 234 234 232 232 230 230 229 227 226 224 224 223 223 222 222 222 222 223 224 225 227 231 235 239 243 251 259 268 280 289 297 302 305 306 305 303 300 295 290 286 283 281 280 276 270 266 263 260 257 255 254 252 251 254 262
280 278 275 271 269 265 259 253 248 244 243 243 244 242 242 242 242 243 243 242 242 241 241 241 240 239 238 236 234 235 235 234 234 233 231 230 229 228 228 227 226 226 225 224 223 223 223 224 225 226 229 232 235 239 242 248 255 264 273 282 290 295 300 302 303 302 298 295 290 287 283 281 280 277 274 271 267 263 259 257 254 252 251 252 254
281 278 273 271 271 270 266 260 253 248 244 244 244 244 243 242 242 243 243 243 243 243 242 242 241 240 240 238 236 235 235 235 234 233 232 231 230 229 228 228 228 227 226 226 225 225 225 225 226 228 230 232 235 238 240 244 250 258 266 274 281 286 292 296 298 298 296 293 290 286 283 279 277 274 273 273 270 266 261 257 254 252 252 251 252
279 275 272 270 268 267 265 262 257 252 246 244 244 244 245 244 244 244 243 243 243 243 243 243 242 242 241 239 237 236 235 235 234 233 233 233 231 229 228 228 229 228 228 228 227 227 227 227 227 229 231 232 234 236 237 241 245 252 258 265 271 277 283 288 290 291 290 288 286 284 282 278 274 271 269 268 268 267 264 261 258 256 256 255 256
279 275 273 268 263 262 261 260 258 254 249 246 244 244 245 245 245 245 245 244 244 244 244 244 244 243 242 240 238 237 236 236 235 234 233 233 232 230 229 229 229 229 229 229 229 228 227 227 228 229 231 232 233 235 236 239 243 247 252 257 263 268 275 282 285 286 285 284 283 281 279 276 272 268 265 265 265 265 264 262 261 260 259 259 259
282 276 271 266 262 260 257 256 255 254 252 249 246 245 245 246 245 245 245 245 244 245 245 245 244 244 243 242 240 238 237 237 236 235 234 234 233 232 231 230 230 229 229 230 230 229 228 228 228 228 230 231 232 234 235 237 240 243 247 251 256 263 271 278 282 283 283 281 280 278 275 272 268 264 262 262 262 262 263 263 263 263 262 261 261
287 277 270 266 263 261 257 254 253 252 251 250 249 247 246 246 246 246 245 245 245 245 245 244 244 244 243 243 242 240 238 238 237 236 235 235 234 233 232 231 230 229 229 230 230 230 229 228 228 228 229 230 230 231 232 235 238 240 242 246 252 258 265 271 276 278 278 278 276 274 271 265 261 259 257 257 259 260 261 264 265 266 265 264 262
284 276 269 265 262 260 257 253 251 251 250 249 249 248 246 245 245 246 245 244 243 243 244 244 244 243 243 243 243 242 240 238 237 237 236 235 235 234 233 231 230 230 230 230 230 229 228 228 228 228 229 229 229 230 231 232 234 236 239 243 248 253 260 266 270 271 273 275 273 269 264 260 256 253 252 252 254 258 260 262 264 266 267 266 264
283 274 269 265 264 261 259 257 255 254 252 251 249 248 246 245 244 244 244 244 243 242 243 243 244 244 243 243 243 242 241 239 238 238 237 236 236 235 234 232 231 230 230 231 231 230 229 229 228 228 228 228 229 229 229 229 229 232 236 240 245 250 256 261 265 268 271 271 267 263 258 255 253 250 250 250 252 254 256 258 259 262 263 263 261
314 284 273 269 268 265 262 260 260 258 255 254 252 251 249 247 245 244 244 244 244 243 243 243 243 244 243 243 243 242 241 240 239 238 238 237 237 236 235 233 231 231 232 232 233 233 231 230 229 229 229 229 229 228 227 226 225 229 232 236 242 248 253 258 262 265 268 266 260 256 254 251 250 249 248 248 249 252 253 254 255 256 258 258 256
13 332 292 274 268 265 263 262 262 260 259 258 257 256 255 253 253 251 250 247 246 245 244 244 244 244 244 243 242 242 241 239 238 238 238 237 237 236 235 234 233 233 232 233 233 233 233 231 230 229 229 229 229 229 228 225 223 227 231 235 240 244 251 255 258 263 263 260 256 252 251 249 246 245 245 247 249 251 252 252 253 254 254 254 253
30 15 346 302 278 269 267 267 267 265 264 263 261 261 260 259 258 256 255 252 251 250 248 248 247 247 246 245 243 242 241 239 238 237 237 237 237 237 237 236 235 235 234 234 233 233 232 232 231 230 229 228 228 229 228 227 224 225 227 232 239 242 249 252 253 258 259 256 254 251 248 244 241 241 243 248 253 257 258 256 256 256 255 254 252
36 26 12 346 310 287 277 272 271 270 269 266 264 263 261 259 258 257 256 254 253 253 252 252 251 250 249 247 246 244 243 241 239 238 237 238 238 238 238 237 237 236 236 235 234 234 233 232 231 230 230 229 229 229 228 228 226 224 221 221 229 231 240 251 252 252 253 252 251 248 244 241 239 241 247 254 259 261 259 259 261 261 260 258 254
37 31 21 8 346 315 292 280 276 276 276 274 270 266 262 260 258 255 254 253 252 252 252 251 251 251 250 249 248 246 245 243 241 239 238 238 238 239 239 238 238 237 237 237 236 236 235 234 233 231 231 231 232 232 230 229 228 227 224 220 221 222 231 245 245 246 249 248 249 247 243 242 244 249 255 261 264 261 255 255 261 262 262 260 257
36 33 28 20 8 348 320 296 285 281 282 284 281 275 268 263 259 256 254 254 254 254 254 254 254 254 254 253 252 250 248 245 243 242 239 238 238 238 239 238 238 237 237 238 237 237 237 236 235 234 234 233 233 233 232 232 230 229 230 230 233 233 234 236 228 234 246 245 247 247 245 246 250 254 258 261 263 257 252 254 259 261 260 258 255
35 32 31 27 21 10 356 335 312 297 288 285 285 284 280 273 268 264 262 261 261 261 262 262 262 262 260 259 258 255 252 249 246 243 241 239 238 238 239 239 239 238 238 238 238 238 238 238 237 236 236 235 233 234 235 234 232 231 233 234 238 239 240 240 233 234 242 244 246 246 247 250 252 253 254 257 257 252 251 256 260 260 258 254 250
34 30 29 28 26 20 12 4 352 335 313 294 284 284 284 282 280 276 271 269 267 266 266 266 265 265 264 263 261 259 256 252 248 246 243 241 239 239 239 239 239 239 238 238 239 240 239 239 238 237 237 236 235 236 236 236 234 235 235 235 238 240 240 243 244 245 242 243 249 247 247 250 249 248 250 252 251 250 253 256 258 258 255 251 246
33 29 27 26 26 24 18 13 8 4 353 330 308 295 287 284 283 279 275 274 271 268 267 267 266 264 264 263 262 261 259 256 253 250 247 244 242 240 239 239 239 239 239 238 239 240 240 240 239 237 237 237 237 237 237 238 238 238 238 237 238 239 239 241 244 245 243 243 248 250 251 250 247 247 246 247 248 250 254 255 255 255 251 248 242
31 28 26 23 23 23 21 16 11 9 13 8 346 325 307 294 287 282 279 277 275 273 271 270 268 266 265 264 264 263 262 261 258 255 252 248 245 242 241 240 239 239 239 239 240 241 241 241 240 240 239 239 239 239 238 239 240 240 240 240 239 239 237 237 239 241 243 243 243 249 255 254 251 250 246 245 247 249 250 253 254 251 248 244 237
28 26 24 22 19 19 20 19 15 8 6 15 13 350 327 309 297 292 289 284 279 277 275 273 271 271 270 269 268 267 266 265 262 259 256 252 248 244 242 241 240 240 240 240 240 241 242 242 241 240 240 239 240 241 240 241 240 239 240 240 240 241 240 240 242 242 244 245 245 249 255 255 252 252 248 244 244 246 248 251 251 248 246 240 233